DW5513 Weather Reports


Display with metric or nautical units.
time (UTC)temp
F
wind
direction
speed
MPH
gust
MPH
rain 1hr
in
rain 24hr
in
rain mn
in
humidity
%
barometer
mb
20260905034608 65 29 0.0 0.0 0.00 0.00 0.00 87 1011.9
20260905033105 66 29 0.0 0.0 0.00 0.00 0.00 86 1011.8
20260905031608 66 29 0.0 1.0 0.00 0.00 0.00 85 1011.9
20260905030053 66 342 0.0 0.0 0.00 0.00 0.00 85 1011.7
20260905024552 66 302 0.0 1.0 0.00 0.00 0.00 85 1011.9
20260905023124 66 33 0.0 2.0 0.00 0.00 0.00 84 1011.9
20260905021551 66 1 0.0 1.0 0.00 0.00 0.00 83 1012.0
20260905020049 67 50 0.0 2.0 0.00 0.00 0.00 83 1011.9
20260905014554 67 43 0.0 3.0 0.00 0.00 0.00 81 1011.9
20260905013048 67 49 0.0 1.0 0.00 0.00 0.00 82 1012.0
20260905011556 66 68 0.0 2.0 0.00 0.00 0.00 82 1012.1
20260905010048 65 268 0.0 0.0 0.00 0.00 0.00 84 1012.0
20260905004547 66 268 0.0 0.0 0.00 0.00 0.00 83 1012.0
20260905003046 67 268 0.0 0.0 0.00 0.00 0.00 81 1011.9
20260905001546 68 268 0.0 0.0 0.00 0.00 0.00 79 1011.9
20260905000058 69 268 0.0 0.0 0.00 0.00 0.00 77 1011.7
20260904234544 70 240 0.0 1.0 0.00 0.00 0.00 73 1011.5
20260904233048 70 312 0.0 2.0 0.00 0.00 0.00 72 1011.6
20260904231542 71 345 0.0 1.0 0.00 0.00 0.00 70 1011.3
20260904230043 72 300 0.0 2.0 0.00 0.00 0.00 69 1011.2
20260904224543 73 309 1.0 3.0 0.00 0.00 0.00 67 1011.3
20260904223042 74 116 0.0 5.0 0.00 0.00 0.00 64 1011.2
20260904221541 76 271 0.0 6.0 0.00 0.00 0.00 61 1010.9
20260904220106 76 243 2.0 7.0 0.00 0.00 0.00 60 1010.8
20260904214540 76 287 0.0 4.0 0.00 0.00 0.00 61 1010.8
20260904213040 76 199 2.0 13.0 0.00 0.00 0.00 59 1011.0
20260904211549 77 79 2.0 8.0 0.00 0.00 0.00 57 1010.9
20260904210039 77 252 3.0 11.0 0.00 0.00 0.00 57 1010.9
20260904204545 79 249 3.0 9.0 0.00 0.00 0.00 56 1011.0
20260904203042 77 283 2.0 9.0 0.00 0.00 0.00 58 1011.2
20260904201534 77 221 3.0 10.0 0.00 0.00 0.00 59 1011.1
20260904200037 77 229 1.0 8.0 0.00 0.00 0.00 61 1011.2
20260904194548 76 11 0.0 4.0 0.00 0.00 0.00 64 1011.1
20260904193036 76 264 1.0 5.0 0.00 0.00 0.00 62 1011.1
20260904191540 77 188 1.0 9.0 0.00 0.00 0.00 61 1011.2
20260904190033 77 323 1.0 7.0 0.00 0.00 0.00 62 1011.3
20260904153028 74 60 1.0 7.0 0.00 0.00 0.00 68 1012.6
20260904151516 74 260 2.0 8.0 0.00 0.00 0.00 73 1012.7
20260904150015 74 11 1.0 9.0 0.00 0.00 0.00 75 1012.6
20260904144512 72 235 1.0 6.0 0.00 0.00 0.00 78 1012.9